When you browse on this site, cookies collect data to enhance your experience and personalize the content and advertising you see.
Visit our Privacy Policy to learn more. By continuing to use the site, you agree to this use of cookies and data.
  • en Suisse
  • Liste des pays
  • À 7 jours
  • Température de l'eau
  • Carte météo
  • Widgets météo
  • user-avatar
    Se connecter

    Météo par heure à Ravda

    Ce jour, 21 Octobre, Lundi

    Heure Température Précipitation Vent Pression Humidité
    00:00 +16°C° 0 mm 1 m/s 766 mmHg 93%
    01:00 +15°C° 0 mm 1 m/s 766 mmHg 93%
    02:00 +14°C° 0 mm 0 m/s 766 mmHg 93%
    03:00 +14°C° 0 mm 0 m/s 766 mmHg 93%
    04:00 +14°C° 0 mm 0 m/s 766 mmHg 93%
    05:00 +14°C° 0 mm 0 m/s 767 mmHg 93%
    06:00 +15°C° 0 mm 0 m/s 767 mmHg 91%
    07:00 +16°C° 0 mm 1 m/s 767 mmHg 90%
    08:00 +18°C° 0 mm 1 m/s 767 mmHg 88%
    09:00 +20°C° 0 mm 1 m/s 767 mmHg 79%
    10:00 +21°C° 0 mm 1 m/s 767 mmHg 71%
    11:00 +23°C° 0 mm 2 m/s 767 mmHg 63%
    12:00 +23°C° 0 mm 2 m/s 767 mmHg 61%
    13:00 +24°C° 0 mm 2 m/s 767 mmHg 59%
    14:00 +24°C° 0 mm 2 m/s 767 mmHg 59%
    15:00 +23°C° 0 mm 2 m/s 766 mmHg 66%
    16:00 +20°C° 0 mm 2 m/s 766 mmHg 74%
    17:00 +19°C° 0 mm 2 m/s 766 mmHg 82%
    18:00 +18°C° 0 mm 2 m/s 766 mmHg 85%
    19:00 +17°C° 0 mm 2 m/s 766 mmHg 89%
    20:00 +16°C° 0 mm 1 m/s 767 mmHg 92%
    21:00 +16°C° 0 mm 1 m/s 767 mmHg 92%
    22:00 +16°C° 0 mm 1 m/s 767 mmHg 92%
    23:00 +15°C° 0 mm 1 m/s 767 mmHg 92%

    Demain, 22 Octobre, Mardi

    Heure Température Précipitation Vent Pression Humidité
    00:00 +15°C° 0 mm 1 m/s 767 mmHg 92%
    01:00 +15°C° 0 mm 1 m/s 767 mmHg 92%
    02:00 +15°C° 0 mm 1 m/s 767 mmHg 92%
    03:00 +14°C° 0 mm 1 m/s 767 mmHg 91%
    04:00 +14°C° 0 mm 1 m/s 766 mmHg 91%
    05:00 +14°C° 0 mm 1 m/s 766 mmHg 91%
    06:00 +15°C° 0 mm 2 m/s 767 mmHg 88%
    07:00 +15°C° 0 mm 2 m/s 767 mmHg 86%
    08:00 +16°C° 0 mm 2 m/s 767 mmHg 83%
    09:00 +18°C° 0 mm 2 m/s 767 mmHg 76%
    10:00 +19°C° 0 mm 2 m/s 767 mmHg 68%
    11:00 +21°C° 0 mm 3 m/s 767 mmHg 61%
    12:00 +22°C° 0 mm 3 m/s 767 mmHg 60%
    13:00 +22°C° 0 mm 3 m/s 767 mmHg 58%
    14:00 +23°C° 0 mm 4 m/s 767 mmHg 57%
    15:00 +22°C° 0 mm 4 m/s 766 mmHg 64%
    16:00 +20°C° 0 mm 3 m/s 766 mmHg 70%
    17:00 +19°C° 0 mm 3 m/s 766 mmHg 77%
    18:00 +18°C° 0 mm 3 m/s 766 mmHg 82%
    19:00 +18°C° 0 mm 3 m/s 766 mmHg 86%
    20:00 +17°C° 0 mm 3 m/s 767 mmHg 91%
    21:00 +16°C° 0 mm 3 m/s 767 mmHg 92%
    22:00 +16°C° 0 mm 3 m/s 767 mmHg 92%
    23:00 +16°C° 0 mm 2 m/s 767 mmHg 93%

    Après-demain, 23 Octobre, Mercredi

    Heure Température Précipitation Vent Pression Humidité
    00:00 +15°C° 0 mm 2 m/s 767 mmHg 93%
    01:00 +15°C° 0 mm 2 m/s 767 mmHg 93%
    02:00 +15°C° 0 mm 2 m/s 767 mmHg 92%
    03:00 +15°C° 0 mm 2 m/s 766 mmHg 92%
    04:00 +14°C° 0 mm 2 m/s 766 mmHg 91%
    05:00 +14°C° 0 mm 2 m/s 766 mmHg 91%
    06:00 +15°C° 0 mm 2 m/s 766 mmHg 87%
    07:00 +15°C° 0 mm 2 m/s 766 mmHg 82%
    08:00 +16°C° 0 mm 2 m/s 766 mmHg 78%
    09:00 +18°C° 0 mm 2 m/s 766 mmHg 70%
    10:00 +20°C° 0 mm 2 m/s 766 mmHg 61%
    11:00 +23°C° 0 mm 2 m/s 766 mmHg 52%
    12:00 +22°C° 0 mm 3 m/s 766 mmHg 51%
    13:00 +24°C° 0 mm 3 m/s 765 mmHg 50%
    14:00 +24°C° 0 mm 3 m/s 765 mmHg 49%
    15:00 +22°C° 0 mm 3 m/s 765 mmHg 55%
    16:00 +21°C° 0 mm 3 m/s 765 mmHg 61%
    17:00 +19°C° 0 mm 3 m/s 764 mmHg 67%
    18:00 +18°C° 0 mm 3 m/s 765 mmHg 73%
    19:00 +17°C° 0 mm 3 m/s 765 mmHg 78%
    20:00 +16°C° 0 mm 2 m/s 765 mmHg 83%
    21:00 +16°C° 0 mm 2 m/s 765 mmHg 84%
    22:00 +16°C° 0 mm 2 m/s 765 mmHg 85%
    23:00 +15°C° 0 mm 1 m/s 765 mmHg 86%

    24 Octobre, Jeudi

    Heure Température Précipitation Vent Pression Humidité
    00:00 +15°C° 0 mm 1 m/s 765 mmHg 86%
    01:00 +15°C° 0 mm 2 m/s 765 mmHg 86%
    02:00 +15°C° 0 mm 2 m/s 765 mmHg 86%
    03:00 +14°C° 0 mm 2 m/s 765 mmHg 86%
    04:00 +14°C° 0 mm 2 m/s 764 mmHg 86%
    05:00 +14°C° 0 mm 2 m/s 764 mmHg 86%
    06:00 +14°C° 0 mm 1 m/s 764 mmHg 82%
    07:00 +15°C° 0 mm 1 m/s 764 mmHg 78%
    08:00 +16°C° 0 mm 1 m/s 764 mmHg 74%
    09:00 +18°C° 0 mm 2 m/s 764 mmHg 66%
    10:00 +19°C° 0 mm 2 m/s 764 mmHg 58%
    11:00 +21°C° 0 mm 2 m/s 764 mmHg 49%
    12:00 +23°C° 0 mm 2 m/s 764 mmHg 46%
    13:00 +22°C° 0 mm 3 m/s 764 mmHg 44%
    14:00 +24°C° 0 mm 3 m/s 763 mmHg 41%
    15:00 +21°C° 0 mm 3 m/s 763 mmHg 48%
    16:00 +20°C° 0 mm 3 m/s 763 mmHg 55%
    17:00 +18°C° 0 mm 3 m/s 763 mmHg 63%
    18:00 +17°C° 0 mm 3 m/s 763 mmHg 68%
    19:00 +17°C° 0 mm 3 m/s 763 mmHg 74%
    20:00 +16°C° 0 mm 2 m/s 764 mmHg 79%
    21:00 +15°C° 0 mm 2 m/s 764 mmHg 81%
    22:00 +15°C° 0 mm 2 m/s 764 mmHg 83%
    23:00 +15°C° 0 mm 2 m/s 764 mmHg 85%

    25 Octobre, Vendredi

    Heure Température Précipitation Vent Pression Humidité
    00:00 +15°C° 0 mm 2 m/s 764 mmHg 86%
    01:00 +14°C° 0 mm 2 m/s 763 mmHg 86%
    02:00 +14°C° 0 mm 2 m/s 763 mmHg 87%
    03:00 +14°C° 0 mm 2 m/s 763 mmHg 87%
    04:00 +14°C° 0 mm 2 m/s 763 mmHg 86%
    05:00 +13°C° 0 mm 2 m/s 763 mmHg 86%
    06:00 +14°C° 0 mm 2 m/s 764 mmHg 82%
    07:00 +15°C° 0 mm 2 m/s 764 mmHg 77%
    08:00 +15°C° 0 mm 2 m/s 764 mmHg 73%
    09:00 +17°C° 0 mm 2 m/s 764 mmHg 64%
    10:00 +19°C° 0 mm 2 m/s 764 mmHg 55%
    11:00 +21°C° 0 mm 2 m/s 764 mmHg 46%
    12:00 +23°C° 0 mm 2 m/s 764 mmHg 44%
    13:00 +22°C° 0 mm 3 m/s 764 mmHg 42%
    14:00 +24°C° 0 mm 3 m/s 764 mmHg 39%
    15:00 +22°C° 0 mm 3 m/s 764 mmHg 48%
    16:00 +20°C° 0 mm 3 m/s 764 mmHg 56%
    17:00 +19°C° 0 mm 3 m/s 764 mmHg 65%
    18:00 +18°C° 0 mm 3 m/s 764 mmHg 70%
    19:00 +17°C° 0 mm 3 m/s 764 mmHg 75%
    20:00 +16°C° 0 mm 3 m/s 764 mmHg 80%
    21:00 +16°C° 0 mm 2 m/s 764 mmHg 82%
    22:00 +15°C° 0 mm 2 m/s 764 mmHg 84%
    23:00 +15°C° 0 mm 2 m/s 765 mmHg 86%

    26 Octobre, Samedi

    Heure Température Précipitation Vent Pression Humidité
    00:00 +15°C° 0 mm 2 m/s 765 mmHg 86%
    01:00 +14°C° 0 mm 2 m/s 765 mmHg 86%
    02:00 +14°C° 0 mm 2 m/s 765 mmHg 86%
    03:00 +14°C° 0 mm 2 m/s 765 mmHg 85%
    04:00 +14°C° 0 mm 2 m/s 765 mmHg 84%
    05:00 +13°C° 0 mm 2 m/s 765 mmHg 84%
    06:00 +14°C° 0 mm 2 m/s 765 mmHg 80%
    07:00 +15°C° 0 mm 2 m/s 765 mmHg 76%
    08:00 +15°C° 0 mm 2 m/s 765 mmHg 72%
    09:00 +18°C° 0 mm 1 m/s 765 mmHg 63%
    10:00 +20°C° 0 mm 1 m/s 765 mmHg 54%
    11:00 +22°C° 0 mm 1 m/s 765 mmHg 46%
    12:00 +23°C° 0 mm 2 m/s 765 mmHg 44%
    13:00 +23°C° 0 mm 2 m/s 765 mmHg 42%
    14:00 +24°C° 0 mm 2 m/s 764 mmHg 40%
    15:00 +21°C° 0 mm 2 m/s 764 mmHg 47%
    16:00 +20°C° 0 mm 2 m/s 764 mmHg 54%
    17:00 +18°C° 0 mm 2 m/s 764 mmHg 61%
    18:00 +17°C° 0 mm 2 m/s 764 mmHg 66%
    19:00 +16°C° 0 mm 1 m/s 764 mmHg 70%
    20:00 +16°C° 0 mm 1 m/s 764 mmHg 75%
    21:00 +15°C° 0 mm 1 m/s 764 mmHg 76%
    22:00 +15°C° 0 mm 1 m/s 764 mmHg 77%
    23:00 +15°C° 0 mm 1 m/s 764 mmHg 78%

    27 Octobre, Dimanche

    Heure Température Précipitation Vent Pression Humidité
    00:00 +15°C° 0 mm 1 m/s 764 mmHg 78%
    01:00 +14°C° 0 mm 1 m/s 764 mmHg 78%
    02:00 +14°C° 0 mm 1 m/s 764 mmHg 77%
    03:00 +14°C° 0 mm 1 m/s 764 mmHg 77%
    04:00 +14°C° 0 mm 1 m/s 764 mmHg 76%
    05:00 +14°C° 0 mm 1 m/s 764 mmHg 75%
    06:00 +14°C° 0 mm 1 m/s 764 mmHg 72%
    07:00 +15°C° 0 mm 1 m/s 764 mmHg 68%
    08:00 +16°C° 0 mm 1 m/s 764 mmHg 65%
    09:00 +19°C° 0 mm 1 m/s 764 mmHg 58%
    10:00 +21°C° 0 mm 1 m/s 764 mmHg 51%
    11:00 +23°C° 0 mm 1 m/s 764 mmHg 43%
    12:00 +23°C° 0 mm 1 m/s 763 mmHg 41%
    13:00 +24°C° 0 mm 1 m/s 763 mmHg 39%
    14:00 +25°C° 0 mm 1 m/s 763 mmHg 37%
    15:00 +23°C° 0 mm 2 m/s 763 mmHg 45%
    16:00 +20°C° 0 mm 2 m/s 762 mmHg 52%
    17:00 +19°C° 0 mm 2 m/s 762 mmHg 60%
    18:00 +18°C° 0 mm 2 m/s 762 mmHg 64%
    19:00 +17°C° 0 mm 2 m/s 763 mmHg 68%
    20:00 +16°C° 0 mm 1 m/s 763 mmHg 72%
    21:00 +16°C° 0 mm 1 m/s 763 mmHg 71%
    22:00 +16°C° 0 mm 1 m/s 763 mmHg 71%
    23:00 +16°C° 0 mm 1 m/s 763 mmHg 70%
    Voir plus